Location: Recife
(8.0585°S, 34.8848°W)
Time: 12:32:06
(UTC-03:00)

Courier 1B - Pass Details

Date: 22 April 2026
Orbit: 962 x 1209 km, 28.3° (Epoch: 7 May)

Event Time Altitude Azimuth Distance (km) Brightness Sun altitude
Rises 06:41:34 0° 241° (WSW) 4,015 10.1 18.4°
Reaches altitude 10° 06:45:43 10° 221° (SW) 3,094 9.7 19.3°
Maximum altitude 06:50:12 16° 185° (S) 2,685 9.7 20.4°
Drops below altitude 10° 06:54:45 10° 149° (SSE) 3,146 10.4 21.5°
Sets 06:59:02 0° 128° (SE) 4,114 11.2 22.5°
